| time (UTC) | temp C | wind direction | speed KPH | gust KPH | rain 1hr cm | rain 24hr cm | rain mn cm | humidity % | barometer mb |
| 20260906201604 | 34 | 203 | 14.5 | 33.8 | 0.00 | 0.00 | 0.00 | 34 | 1015.0 |
| 20260906200109 | 34 | 112 | 12.9 | 30.6 | 0.00 | 0.00 | 0.00 | 35 | 1015.2 |
| 20260906194606 | 33 | 165 | 14.5 | 45.1 | 0.00 | 0.00 | 0.00 | 33 | 1015.4 |
| 20260906193104 | 33 | 83 | 11.3 | 32.2 | 0.00 | 0.00 | 0.00 | 35 | 1015.7 |
| 20260906191604 | 33 | 163 | 8.0 | 25.7 | 0.00 | 0.00 | 0.00 | 35 | 1015.8 |
| 20260906190110 | 33 | 172 | 6.4 | 20.9 | 0.00 | 0.00 | 0.00 | 37 | 1016.1 |
| 20260906184628 | 32 | 84 | 6.4 | 20.9 | 0.00 | 0.00 | 0.00 | 40 | 1016.2 |
| 20260906183102 | 32 | 58 | 6.4 | 20.9 | 0.00 | 0.00 | 0.00 | 41 | 1016.6 |
| 20260906181602 | 31 | 193 | 6.4 | 24.1 | 0.00 | 0.00 | 0.00 | 42 | 1017.1 |
| 20260906174601 | 30 | 135 | 6.4 | 20.9 | 0.00 | 0.00 | 0.00 | 48 | 1017.5 |
| 20260906173121 | 30 | 110 | 4.8 | 19.3 | 0.00 | 0.00 | 0.00 | 49 | 1017.8 |
| 20260906171608 | 29 | 37 | 4.8 | 22.5 | 0.00 | 0.00 | 0.00 | 52 | 1018.1 |
| 20260906170112 | 28 | 116 | 6.4 | 27.4 | 0.00 | 0.00 | 0.00 | 56 | 1018.3 |
| 20260906164604 | 27 | 57 | 4.8 | 27.4 | 0.00 | 0.00 | 0.00 | 57 | 1018.4 |
| 20260906163105 | 27 | 111 | 9.7 | 30.6 | 0.00 | 0.00 | 0.00 | 59 | 1018.3 |
| 20260906161606 | 26 | 62 | 6.4 | 25.7 | 0.00 | 0.00 | 0.00 | 63 | 1018.5 |
| 20260906160104 | 25 | 116 | 12.9 | 25.7 | 0.00 | 0.00 | 0.00 | 66 | 1018.6 |
| 20260906154601 | 25 | 58 | 9.7 | 27.4 | 0.00 | 0.00 | 0.00 | 70 | 1018.4 |
| 20260906153102 | 24 | 64 | 9.7 | 20.9 | 0.00 | 0.00 | 0.00 | 71 | 1018.4 |
| 20260906151602 | 23 | 116 | 11.3 | 32.2 | 0.00 | 0.00 | 0.00 | 75 | 1018.4 |
| 20260906150121 | 22 | 64 | 9.7 | 22.5 | 0.00 | 0.00 | 0.00 | 77 | 1018.2 |
| 20260906144611 | 22 | 66 | 11.3 | 24.1 | 0.00 | 0.00 | 0.00 | 77 | 1018.3 |
| 20260906143104 | 22 | 101 | 6.4 | 20.9 | 0.00 | 0.00 | 0.00 | 78 | 1018.5 |
| 20260906141611 | 22 | 65 | 8.0 | 17.7 | 0.00 | 0.00 | 0.00 | 80 | 1018.5 |
| 20260906140116 | 22 | 83 | 8.0 | 22.5 | 0.00 | 0.00 | 0.00 | 78 | 1018.2 |
| 20260906134624 | 23 | 65 | 4.8 | 9.7 | 0.00 | 0.00 | 0.00 | 73 | 1017.8 |
| 20260906133106 | 23 | 62 | 1.6 | 4.8 | 0.00 | 0.00 | 0.00 | 72 | 1017.5 |
| 20260906131602 | 23 | 0 | 1.6 | 4.8 | 0.00 | 0.00 | 0.00 | 71 | 1017.2 |
| 20260906130148 | 23 | 80 | 1.6 | 4.8 | 0.00 | 0.00 | 0.00 | 71 | 1016.9 |
| 20260906124611 | 22 | 123 | 0.0 | 4.8 | 0.00 | 0.00 | 0.00 | 71 | 1016.5 |
| 20260906123105 | 22 | 129 | 0.0 | 8.0 | 0.00 | 0.00 | 0.00 | 71 | 1016.3 |
| 20260906121610 | 22 | 181 | 3.2 | 11.3 | 0.00 | 0.00 | 0.00 | 70 | 1016.2 |
| 20260906120110 | 22 | 184 | 1.6 | 8.0 | 0.00 | 0.00 | 0.00 | 69 | 1016.0 |
| 20260906114607 | 23 | 184 | 1.6 | 8.0 | 0.00 | 0.00 | 0.00 | 68 | 1015.9 |
| 20260906113108 | 23 | 170 | 0.0 | 6.4 | 0.00 | 0.00 | 0.00 | 68 | 1015.9 |
| 20260906111602 | 23 | 177 | 1.6 | 14.5 | 0.00 | 0.00 | 0.00 | 68 | 1015.7 |
| 20260906110100 | 23 | 188 | 3.2 | 11.3 | 0.00 | 0.00 | 0.00 | 66 | 1015.5 |
| 20260906104602 | 23 | 174 | 1.6 | 11.3 | 0.00 | 0.00 | 0.00 | 66 | 1015.4 |
| 20260906103105 | 23 | 178 | 1.6 | 8.0 | 0.00 | 0.00 | 0.00 | 67 | 1015.5 |
| 20260906101604 | 24 | 154 | 3.2 | 9.7 | 0.00 | 0.00 | 0.00 | 66 | 1015.5 |
| 20260906100107 | 24 | 0 | 1.6 | 4.8 | 0.00 | 0.00 | 0.00 | 65 | 1015.5 |
| 20260906094602 | 24 | 183 | 1.6 | 6.4 | 0.00 | 0.00 | 0.00 | 64 | 1015.7 |
| 20260906093102 | 24 | 180 | 6.4 | 11.3 | 0.00 | 0.00 | 0.00 | 63 | 1015.5 |
| 20260906091606 | 24 | 215 | 4.8 | 16.1 | 0.00 | 0.00 | 0.00 | 63 | 1015.5 |
| 20260906090123 | 24 | 221 | 6.4 | 16.1 | 0.00 | 0.00 | 0.00 | 63 | 1015.7 |
| 20260906084606 | 24 | 199 | 8.0 | 19.3 | 0.00 | 0.00 | 0.00 | 64 | 1015.6 |
| 20260906083112 | 24 | 191 | 8.0 | 17.7 | 0.00 | 0.00 | 0.00 | 63 | 1015.4 |
| 20260906081604 | 24 | 145 | 3.2 | 9.7 | 0.00 | 0.00 | 0.00 | 64 | 1015.6 |
| 20260906080103 | 25 | 0 | 1.6 | 11.3 | 0.00 | 0.00 | 0.00 | 63 | 1015.7 |
| 20260906074606 | 25 | 181 | 3.2 | 12.9 | 0.00 | 0.00 | 0.00 | 63 | 1015.8 |
| 20260906073101 | 25 | 197 | 3.2 | 11.3 | 0.00 | 0.00 | 0.00 | 62 | 1016.0 |
| 20260906071604 | 25 | 195 | 1.6 | 12.9 | 0.00 | 0.00 | 0.00 | 61 | 1015.9 |
| 20260906070106 | 25 | 180 | 4.8 | 11.3 | 0.00 | 0.00 | 0.00 | 61 | 1015.8 |
| 20260906064603 | 25 | 159 | 1.6 | 9.7 | 0.00 | 0.00 | 0.00 | 61 | 1015.7 |
| 20260906063105 | 25 | 177 | 1.6 | 11.3 | 0.00 | 0.00 | 0.00 | 61 | 1015.8 |
| 20260906061626 | 25 | 189 | 4.8 | 14.5 | 0.00 | 0.00 | 0.00 | 61 | 1016.2 |
| 20260906060121 | 25 | 195 | 6.4 | 14.5 | 0.00 | 0.00 | 0.00 | 59 | 1016.1 |
| 20260906054605 | 25 | 189 | 3.2 | 9.7 | 0.00 | 0.00 | 0.00 | 58 | 1016.0 |
| 20260906053102 | 25 | 166 | 1.6 | 6.4 | 0.00 | 0.00 | 0.00 | 58 | 1015.7 |
| 20260906051608 | 25 | 117 | 0.0 | 6.4 | 0.00 | 0.00 | 0.00 | 57 | 1015.5 |
| 20260906050111 | 26 | 162 | 1.6 | 9.7 | 0.00 | 0.00 | 0.00 | 56 | 1015.5 |
| 20260906044603 | 26 | 0 | 0.0 | 12.9 | 0.00 | 0.00 | 0.00 | 54 | 1015.2 |
| 20260906043105 | 26 | 178 | 3.2 | 17.7 | 0.00 | 0.00 | 0.00 | 53 | 1015.0 |
| 20260906041604 | 26 | 186 | 3.2 | 11.3 | 0.00 | 0.00 | 0.00 | 53 | 1014.9 |
| 20260906040101 | 27 | 190 | 4.8 | 14.5 | 0.00 | 0.00 | 0.00 | 52 | 1014.9 |
| 20260906034605 | 27 | 74 | 3.2 | 14.5 | 0.00 | 0.00 | 0.00 | 52 | 1015.0 |
| 20260906033101 | 27 | 193 | 4.8 | 16.1 | 0.00 | 0.00 | 0.00 | 52 | 1015.2 |
| 20260906031603 | 27 | 192 | 4.8 | 16.1 | 0.00 | 0.00 | 0.00 | 50 | 1015.0 |
| 20260906030109 | 27 | 0 | 4.8 | 20.9 | 0.00 | 0.00 | 0.00 | 50 | 1015.0 |
| 20260906024559 | 27 | 195 | 3.2 | 22.5 | 0.00 | 0.00 | 0.00 | 49 | 1014.9 |
| 20260906023109 | 27 | 188 | 3.2 | 16.1 | 0.00 | 0.00 | 0.00 | 50 | 1014.6 |
| 20260906021608 | 28 | 161 | 1.6 | 9.7 | 0.00 | 0.00 | 0.00 | 50 | 1014.4 |
| 20260906014607 | 28 | 83 | 3.2 | 14.5 | 0.00 | 0.00 | 0.00 | 48 | 1013.9 |
| 20260906013103 | 29 | 62 | 3.2 | 12.9 | 0.00 | 0.00 | 0.00 | 46 | 1013.9 |
| 20260906011608 | 30 | 67 | 3.2 | 17.7 | 0.00 | 0.00 | 0.00 | 46 | 1013.7 |
| 20260906010108 | 30 | 120 | 3.2 | 16.1 | 0.00 | 0.00 | 0.00 | 44 | 1013.7 |
| 20260906004605 | 31 | 83 | 1.6 | 16.1 | 0.00 | 0.00 | 0.00 | 40 | 1013.7 |
| 20260906003104 | 33 | 54 | 3.2 | 14.5 | 0.00 | 0.00 | 0.00 | 35 | 1013.6 |
| 20260906001605 | 33 | 97 | 6.4 | 22.5 | 0.00 | 0.00 | 0.00 | 31 | 1013.5 |
| 20260906000106 | 33 | 193 | 4.8 | 12.9 | 0.00 | 0.00 | 0.00 | 31 | 1013.8 |
| 20260905234609 | 34 | 196 | 6.4 | 22.5 | 0.00 | 0.00 | 0.00 | 30 | 1013.7 |
| 20260905233116 | 34 | 185 | 9.7 | 20.9 | 0.00 | 0.00 | 0.00 | 29 | 1013.5 |
| 20260905231602 | 35 | 208 | 6.4 | 22.5 | 0.00 | 0.00 | 0.00 | 27 | 1013.3 |
| 20260905230117 | 36 | 129 | 9.7 | 25.7 | 0.00 | 0.00 | 0.00 | 27 | 1013.2 |
| 20260905224604 | 36 | 189 | 9.7 | 22.5 | 0.00 | 0.00 | 0.00 | 27 | 1013.0 |
| 20260905223120 | 36 | 218 | 3.2 | 14.5 | 0.00 | 0.00 | 0.00 | 29 | 1012.9 |
| 20260905221604 | 36 | 197 | 8.0 | 24.1 | 0.00 | 0.00 | 0.00 | 29 | 1012.8 |
| 20260905220117 | 36 | 185 | 9.7 | 19.3 | 0.00 | 0.00 | 0.00 | 28 | 1013.0 |
| 20260905214625 | 36 | 181 | 4.8 | 22.5 | 0.00 | 0.00 | 0.00 | 31 | 1012.9 |
| 20260905213119 | 36 | 165 | 9.7 | 22.5 | 0.00 | 0.00 | 0.00 | 29 | 1013.1 |
| 20260905211616 | 36 | 150 | 9.7 | 25.7 | 0.00 | 0.00 | 0.00 | 29 | 1013.3 |
| 20260905210114 | 35 | 145 | 6.4 | 27.4 | 0.00 | 0.00 | 0.00 | 31 | 1013.6 |
| 20260905204601 | 35 | 195 | 8.0 | 20.9 | 0.00 | 0.00 | 0.00 | 32 | 1013.9 |
| 20260905203106 | 35 | 187 | 8.0 | 19.3 | 0.00 | 0.00 | 0.00 | 35 | 1014.3 |